Tracking 28790 objects as of 19-Apr-2024
HD Live streaming from Space Station
objects crossing your sky now

COSMOS 2251 DEB

Track COSMOS 2251 DEB now!
10-day predictions


NORAD ID: 35721
Int'l Code: 1993-036AQS
Perigee: 696.5 km
Apogee: 931.9 km
Inclination: 74.0 °
Period: 101.0 minutes
Semi major axis: 7185 km
RCS: 0.0071 m2 (small)
Launch date: June 16, 1993
Source: Commonwealth of Independent States (former USSR) (CIS)
Launch site: PLESETSK MISSILE AND SPACE COMPLEX (PKMTR)

Note: This is SATELLITE DEBRIS
Your satellite tracking list
Your tracking list is empty




NASA's NSSDC Master Catalog

Two Line Element Set (TLE):
1 35721U 93036AQS 24106.55529224  .00009328  00000-0  34398-2 0  9997
2 35721  73.9558 206.5417 0163776 125.0598 236.6037 14.25423443491229
Source of the keplerian elements: AFSPC